When you browse on this site, cookies collect data to enhance your experience and personalize the content and advertising you see.
Visit our Privacy Policy to learn more. By continuing to use the site, you agree to this use of cookies and data.
  • In Austria
  • List of Countries
  • For 7 days
  • Water Temperature
  • Satellite Maps
  • Weather Map
  • News
  • Weather Widgets
  • user-avatar
    Login

    Hourly Weather Oran

    Today, 17 November, Saturday

    Time Temperature Precipitation Wind Pressure Humidity
    00:00 +18°C° 0 mm 4 mps 750 mmHg 68%
    01:00 +18°C° 0 mm 4 mps 750 mmHg 68%
    02:00 +18°C° 0 mm 4 mps 750 mmHg 68%
    03:00 +18°C° 0 mm 3 mps 749 mmHg 67%
    04:00 +17°C° 0.1 mm 3 mps 749 mmHg 69%
    05:00 +17°C° 0.1 mm 3 mps 749 mmHg 71%
    06:00 +16°C° 0.1 mm 2 mps 749 mmHg 72%
    07:00 +17°C° 0.1 mm 2 mps 749 mmHg 68%
    08:00 +19°C° 0.1 mm 2 mps 750 mmHg 64%
    09:00 +20°C° 0.1 mm 2 mps 750 mmHg 59%
    10:00 +20°C° 0 mm 2 mps 750 mmHg 57%
    11:00 +21°C° 0 mm 3 mps 749 mmHg 55%
    12:00 +22°C° 0 mm 3 mps 749 mmHg 53%
    13:00 +22°C° 0 mm 3 mps 749 mmHg 53%
    14:00 +22°C° 0 mm 4 mps 749 mmHg 54%
    15:00 +22°C° 0 mm 4 mps 748 mmHg 55%
    16:00 +21°C° 0 mm 4 mps 748 mmHg 60%
    17:00 +20°C° 0 mm 4 mps 748 mmHg 66%
    18:00 +19°C° 0 mm 5 mps 748 mmHg 71%
    19:00 +19°C° 0 mm 4 mps 748 mmHg 73%
    20:00 +19°C° 0 mm 4 mps 748 mmHg 74%
    21:00 +18°C° 0 mm 4 mps 748 mmHg 76%
    22:00 +18°C° 0 mm 4 mps 748 mmHg 75%
    23:00 +18°C° 0 mm 4 mps 747 mmHg 75%

    Tomorrow, 18 November, Sunday

    Time Temperature Precipitation Wind Pressure Humidity
    00:00 +18°C° 0 mm 4 mps 747 mmHg 74%
    01:00 +18°C° 0 mm 4 mps 746 mmHg 72%
    02:00 +18°C° 0 mm 4 mps 746 mmHg 70%
    03:00 +16°C° 0 mm 5 mps 745 mmHg 68%
    04:00 +17°C° 0 mm 5 mps 745 mmHg 65%
    05:00 +17°C° 0 mm 5 mps 744 mmHg 61%
    06:00 +17°C° 0 mm 5 mps 744 mmHg 57%
    07:00 +19°C° 0 mm 5 mps 744 mmHg 51%
    08:00 +20°C° 0 mm 4 mps 744 mmHg 45%
    09:00 +21°C° 0 mm 4 mps 744 mmHg 39%
    10:00 +22°C° 0 mm 4 mps 743 mmHg 37%
    11:00 +24°C° 0 mm 3 mps 743 mmHg 34%
    12:00 +25°C° 0 mm 3 mps 743 mmHg 32%
    13:00 +23°C° 0 mm 4 mps 742 mmHg 37%
    14:00 +22°C° 0 mm 4 mps 742 mmHg 42%
    15:00 +22°C° 0 mm 4 mps 742 mmHg 47%
    16:00 +21°C° 0.1 mm 5 mps 742 mmHg 52%
    17:00 +20°C° 0.1 mm 5 mps 742 mmHg 58%
    18:00 +19°C° 0.1 mm 5 mps 742 mmHg 63%
    19:00 +19°C° 0.3 mm 5 mps 742 mmHg 65%
    20:00 +17°C° 0.3 mm 5 mps 742 mmHg 68%
    21:00 +17°C° 0.3 mm 5 mps 742 mmHg 70%
    22:00 +16°C° 0.2 mm 5 mps 742 mmHg 71%
    23:00 +16°C° 0.2 mm 5 mps 742 mmHg 72%

    Day after tomorrow, 19 November, Monday

    Time Temperature Precipitation Wind Pressure Humidity
    00:00 +16°C° 0.2 mm 5 mps 742 mmHg 73%
    01:00 +15°C° 0.4 mm 5 mps 741 mmHg 72%
    02:00 +15°C° 0.4 mm 5 mps 741 mmHg 71%
    03:00 +15°C° 0.4 mm 5 mps 741 mmHg 71%
    04:00 +15°C° 0.2 mm 5 mps 741 mmHg 69%
    05:00 +15°C° 0.2 mm 5 mps 741 mmHg 67%
    06:00 +15°C° 0.2 mm 5 mps 741 mmHg 65%
    07:00 +15°C° 0.2 mm 5 mps 741 mmHg 62%
    08:00 +16°C° 0.2 mm 6 mps 741 mmHg 58%
    09:00 +16°C° 0.2 mm 7 mps 741 mmHg 55%
    10:00 +17°C° 0.1 mm 8 mps 741 mmHg 53%
    11:00 +18°C° 0.1 mm 9 mps 741 mmHg 51%
    12:00 +18°C° 0.1 mm 10 mps 741 mmHg 49%
    13:00 +18°C° 0.2 mm 11 mps 740 mmHg 50%
    14:00 +18°C° 0.2 mm 12 mps 740 mmHg 51%
    15:00 +18°C° 0.2 mm 12 mps 740 mmHg 53%
    16:00 +17°C° 0.2 mm 12 mps 740 mmHg 56%
    17:00 +15°C° 0.2 mm 13 mps 741 mmHg 60%
    18:00 +15°C° 0.2 mm 13 mps 741 mmHg 64%
    19:00 +15°C° 0.4 mm 13 mps 741 mmHg 64%
    20:00 +15°C° 0.4 mm 13 mps 742 mmHg 65%
    21:00 +15°C° 0.4 mm 13 mps 742 mmHg 65%
    22:00 +14°C° 0.9 mm 12 mps 742 mmHg 66%
    23:00 +14°C° 0.9 mm 12 mps 742 mmHg 66%

    20 November, Tuesday

    Time Temperature Precipitation Wind Pressure Humidity
    00:00 +14°C° 0.9 mm 11 mps 743 mmHg 67%
    01:00 +14°C° 0.6 mm 10 mps 743 mmHg 67%
    02:00 +15°C° 0.6 mm 9 mps 743 mmHg 67%
    03:00 +15°C° 0.6 mm 8 mps 743 mmHg 67%
    04:00 +15°C° 0.1 mm 7 mps 743 mmHg 66%
    05:00 +14°C° 0.1 mm 7 mps 743 mmHg 64%
    06:00 +14°C° 0.1 mm 6 mps 743 mmHg 62%
    07:00 +15°C° 0 mm 6 mps 744 mmHg 56%
    08:00 +16°C° 0 mm 6 mps 744 mmHg 50%
    09:00 +17°C° 0 mm 7 mps 744 mmHg 44%
    10:00 +18°C° 0 mm 8 mps 744 mmHg 43%
    11:00 +19°C° 0 mm 9 mps 744 mmHg 43%
    12:00 +19°C° 0 mm 10 mps 744 mmHg 42%
    13:00 +19°C° 0.1 mm 10 mps 744 mmHg 44%
    14:00 +19°C° 0.1 mm 11 mps 743 mmHg 46%
    15:00 +19°C° 0.1 mm 11 mps 743 mmHg 48%
    16:00 +18°C° 0.2 mm 11 mps 744 mmHg 54%
    17:00 +17°C° 0.2 mm 11 mps 744 mmHg 60%
    18:00 +16°C° 0.2 mm 10 mps 745 mmHg 65%
    19:00 +16°C° 0.6 mm 10 mps 745 mmHg 67%
    20:00 +16°C° 0.6 mm 10 mps 746 mmHg 68%
    21:00 +14°C° 0.6 mm 10 mps 746 mmHg 70%
    22:00 +14°C° 0.6 mm 10 mps 746 mmHg 69%
    23:00 +14°C° 0.6 mm 10 mps 747 mmHg 68%

    21 November, Wednesday

    Time Temperature Precipitation Wind Pressure Humidity
    00:00 +14°C° 0.6 mm 10 mps 747 mmHg 68%
    01:00 +14°C° 0.2 mm 10 mps 747 mmHg 66%
    02:00 +15°C° 0.2 mm 9 mps 747 mmHg 65%
    03:00 +13°C° 0.2 mm 9 mps 747 mmHg 63%
    04:00 +13°C° 0.1 mm 9 mps 747 mmHg 63%
    05:00 +13°C° 0.1 mm 9 mps 747 mmHg 64%
    06:00 +13°C° 0.1 mm 8 mps 748 mmHg 64%
    07:00 +15°C° 0.1 mm 8 mps 748 mmHg 61%
    08:00 +16°C° 0.1 mm 8 mps 749 mmHg 57%
    09:00 +17°C° 0.1 mm 8 mps 749 mmHg 54%
    10:00 +18°C° 0 mm 8 mps 749 mmHg 51%
    11:00 +20°C° 0 mm 8 mps 749 mmHg 48%
    12:00 +21°C° 0 mm 8 mps 749 mmHg 45%
    13:00 +21°C° 0 mm 8 mps 749 mmHg 45%
    14:00 +21°C° 0 mm 7 mps 749 mmHg 45%
    15:00 +21°C° 0 mm 7 mps 749 mmHg 45%
    16:00 +20°C° 0 mm 5 mps 749 mmHg 53%
    17:00 +18°C° 0 mm 4 mps 750 mmHg 60%
    18:00 +17°C° 0 mm 2 mps 750 mmHg 67%
    19:00 +17°C° 0 mm 2 mps 750 mmHg 67%
    20:00 +17°C° 0 mm 2 mps 750 mmHg 66%
    21:00 +16°C° 0 mm 2 mps 751 mmHg 66%
    22:00 +16°C° 0 mm 2 mps 751 mmHg 66%
    23:00 +16°C° 0 mm 2 mps 751 mmHg 66%

    22 November, Thursday

    Time Temperature Precipitation Wind Pressure Humidity
    00:00 +15°C° 0 mm 1 mps 751 mmHg 66%
    01:00 +15°C° 0 mm 1 mps 751 mmHg 66%
    02:00 +15°C° 0 mm 1 mps 751 mmHg 66%
    03:00 +15°C° 0 mm 1 mps 751 mmHg 65%
    04:00 +15°C° 0 mm 1 mps 751 mmHg 64%
    05:00 +14°C° 0 mm 1 mps 751 mmHg 63%
    06:00 +14°C° 0 mm 1 mps 751 mmHg 62%
    07:00 +16°C° 0 mm 1 mps 751 mmHg 56%
    08:00 +18°C° 0 mm 1 mps 752 mmHg 51%
    09:00 +20°C° 0 mm 1 mps 752 mmHg 46%
    10:00 +20°C° 0 mm 2 mps 752 mmHg 45%
    11:00 +20°C° 0 mm 2 mps 752 mmHg 44%
    12:00 +21°C° 0 mm 3 mps 752 mmHg 44%
    13:00 +21°C° 0 mm 3 mps 752 mmHg 47%
    14:00 +21°C° 0 mm 3 mps 752 mmHg 50%
    15:00 +20°C° 0 mm 3 mps 752 mmHg 53%
    16:00 +19°C° 0 mm 3 mps 752 mmHg 59%
    17:00 +19°C° 0 mm 2 mps 752 mmHg 65%
    18:00 +18°C° 0 mm 2 mps 753 mmHg 72%
    19:00 +17°C° 0 mm 2 mps 753 mmHg 73%
    20:00 +17°C° 0 mm 2 mps 753 mmHg 74%
    21:00 +17°C° 0 mm 2 mps 754 mmHg 76%
    22:00 +17°C° 0 mm 2 mps 754 mmHg 77%
    23:00 +16°C° 0 mm 2 mps 754 mmHg 77%
    Show more